Wind_Speed
60 67 72 77 79 83 85 92 94 94 91 89 90 97 101 106 105 109 108 106 103 100 95 91 88 87 85 81 79 76 73 71 67 61 58 56 58 58 59 60 61 60 61 62
58 66 72 78 83 82 83 86 90 92 92 91 91 95 98 104 104 109 109 107 105 102 99 95 93 91 89 86 83 80 79 75 72 71 67 61 62 62 60 61 63 66 65 65
54 62 64 68 72 77 82 85 87 90 94 92 89 91 95 101 106 104 105 106 106 104 103 101 99 98 95 92 89 86 82 79 77 74 72 70 69 63 63 64 62 62 64 65
47 50 61 70 73 76 79 79 85 91 92 92 91 90 93 98 102 104 104 103 104 103 104 103 103 101 101 97 93 91 88 84 81 80 79 78 76 76 71 68 65 65 66 66
46 52 61 64 67 72 77 79 87 90 91 88 89 89 90 93 99 102 105 104 102 102 102 103 106 105 104 101 99 95 93 91 88 85 84 81 82 80 72 69 69 69 67 67
42 50 59 66 68 70 75 78 80 83 85 85 88 90 90 94 96 98 101 103 103 103 101 100 104 106 105 104 103 101 100 98 96 90 88 84 81 81 80 80 83 84 85 84
45 54 59 62 64 67 71 75 77 79 81 85 85 88 93 93 93 94 94 96 101 103 102 100 98 103 107 108 107 106 106 104 101 99 95 93 91 91 91 90 90 91 90 90
32 43 53 59 62 65 68 72 72 73 75 80 84 85 91 91 92 92 92 93 94 97 101 101 102 102 103 104 106 107 107 107 107 105 101 98 95 94 93 92 93 94 94 93
16 35 45 53 58 61 63 63 64 69 71 74 79 82 86 83 88 92 93 92 93 94 95 97 98 100 102 103 104 106 107 108 108 109 109 105 104 101 99 98 97 96 95 95
28 36 43 48 52 55 59 61 65 68 71 74 75 78 78 78 81 85 91 95 95 94 93 96 97 98 99 103 105 105 105 107 109 110 110 109 108 107 106 104 102 99 98 98
24 33 40 44 49 54 57 60 62 64 67 70 72 75 73 74 76 78 82 89 94 95 94 95 95 97 97 100 101 103 105 106 106 109 110 111 112 112 111 109 108 105 104 104
17 26 33 41 46 52 55 59 61 63 66 68 68 69 69 70 73 75 76 79 85 91 94 95 95 98 99 99 100 102 104 106 107 108 109 112 113 114 114 113 113 112 111 110
13 24 31 36 38 41 47 52 56 60 61 63 66 68 68 69 71 73 73 74 77 81 87 92 97 99 99 100 101 103 104 104 105 107 109 110 111 115 115 114 114 114 114 113
5 14 22 31 38 44 45 48 52 56 57 62 62 67 68 72 71 70 70 72 74 77 81 86 91 96 100 103 103 103 103 104 104 106 106 107 108 110 114 117 118 118 117 116
7 10 16 24 32 40 45 50 51 54 61 61 66 66 71 74 72 71 69 71 72 75 78 82 86 91 95 99 102 103 103 105 105 105 104 104 106 106 107 110 113 114 115 116
12 12 16 21 29 34 40 47 51 55 60 62 66 67 72 72 71 68 71 71 72 74 76 80 82 84 86 89 91 94 96 98 98 100 101 101 101 101 103 105 106 107 109 111
18 16 17 20 21 29 37 41 44 49 55 59 61 67 68 68 70 68 68 69 72 75 75 75 77 79 81 83 84 85 86 87 87 90 93 94 95 95 93 93 93 94 96 98
26 20 19 21 22 26 31 32 37 42 47 50 56 61 62 64 67 66 65 64 67 71 71 72 72 74 75 76 78 79 80 82 83 85 86 87 87 86 87 86 87 86 86 87
31 24 21 22 23 27 30 31 32 38 42 46 51 53 55 56 59 59 61 62 63 64 66 67 67 68 69 71 73 75 77 77 78 78 79 80 81 81 80 80 80 80 80 79
47 31 23 22 22 27 32 29 30 34 37 42 42 44 46 49 54 53 54 54 55 57 61 64 63 64 65 67 69 69 70 71 73 74 74 76 76 76 76 76 75 75 74 73
50 37 28 24 23 27 27 30 33 32 34 36 38 39 39 41 45 47 48 50 51 52 54 56 59 62 63 65 65 66 66 66 68 68 68 68 68 68 68 68 69 70 70 69
54 48 38 29 24 29 27 28 32 35 37 37 35 35 35 36 38 41 42 44 45 46 47 48 51 55 57 57 58 60 61 64 65 66 66 67 68 69 68 67 66 66 66 66
58 49 47 37 30 27 30 31 32 34 38 39 39 37 36 35 35 37 39 40 41 43 43 44 44 45 46 47 48 49 52 54 56 57 59 58 59 61 62 62 62 63 63 62
70 61 53 47 36 31 30 33 34 35 38 41 43 42 40 39 37 36 36 36 38 40 41 42 43 44 44 45 45 47 47 47 48 50 51 51 50 52 52 53 54 55 57 58
75 66 61 56 46 34 34 31 33 37 39 40 43 45 45 45 44 42 40 39 38 37 38 40 42 44 45 45 46 47 48 49 50 50 50 51 51 52 52 52 52 53 53 53
85 78 74 65 52 41 36 35 33 35 38 42 42 44 47 48 47 47 46 44 44 43 41 40 40 41 43 45 47 48 49 49 51 53 54 54 53 52 53 52 51 52 51 50
Wind_Direction
207 210 208 208 208 209 210 212 214 216 218 217 216 216 216 217 216 219 221 221 225 225 225 227 229 232 235 236 238 240 241 240 238 240 242 248 253 254 258 259 259 260 262 264
205 207 206 207 207 209 210 212 214 216 217 216 217 216 217 218 218 219 221 222 224 226 227 227 229 231 234 236 238 240 243 243 242 242 244 248 247 250 252 255 258 260 262 264
203 206 205 207 208 208 211 211 214 216 218 218 217 217 217 219 219 220 222 224 225 227 227 228 230 232 233 235 237 240 242 245 246 243 246 249 248 248 252 253 255 259 263 265
203 203 201 204 206 208 210 211 213 216 218 219 219 218 218 220 220 221 222 224 226 227 228 230 232 234 234 235 238 240 242 244 246 247 245 246 248 250 253 254 256 259 263 266
200 197 199 203 205 207 210 210 212 215 218 219 221 222 220 220 222 222 224 225 225 227 228 228 231 234 236 237 238 239 242 244 245 247 249 250 251 253 252 252 256 260 263 264
193 196 199 202 204 207 210 214 216 217 219 221 221 223 224 224 223 225 226 226 227 228 229 229 230 233 235 238 239 240 241 242 243 244 245 247 250 251 253 257 259 260 261 262
194 195 197 202 204 209 212 214 217 218 219 222 224 224 226 227 227 227 228 229 230 230 231 231 231 233 235 236 239 241 242 243 244 245 244 246 248 250 252 252 254 256 259 262
201 198 200 201 205 208 212 217 218 219 221 222 225 226 227 227 230 231 230 231 232 233 232 232 232 233 235 237 239 241 242 243 244 243 244 245 246 249 252 254 257 259 261 263
190 201 204 206 208 211 216 218 221 222 222 224 226 228 230 229 229 232 233 233 233 234 234 235 235 236 237 237 238 240 242 243 244 246 245 245 246 247 249 251 254 257 261 264
191 195 201 204 210 214 217 217 219 223 225 227 227 230 229 230 231 231 233 235 235 235 235 236 236 237 238 239 239 240 241 243 244 246 247 248 248 249 250 251 253 255 257 260
202 200 203 206 209 213 217 219 222 224 227 230 231 232 232 231 233 233 232 233 235 237 236 237 237 238 240 241 240 241 242 243 244 246 248 249 250 251 252 253 253 254 256 258
208 210 211 212 214 215 217 220 223 226 228 231 233 234 236 234 235 235 234 234 235 237 238 238 239 238 239 240 242 243 243 244 245 246 247 248 250 252 253 254 255 256 257 259
217 212 213 215 216 220 222 223 225 228 230 232 234 236 236 236 235 236 236 235 235 236 238 239 240 240 241 241 242 244 245 247 248 248 248 249 250 251 253 255 257 258 259 260
270 234 233 227 221 220 223 225 226 228 230 232 234 236 236 237 237 238 238 238 237 237 238 239 241 241 242 243 244 244 245 246 247 250 251 251 252 253 253 254 255 257 259 261
304 269 241 241 237 231 227 226 228 228 229 230 233 234 236 239 236 238 238 239 239 239 239 240 240 241 242 243 244 246 248 250 250 251 251 253 254 256 257 257 257 259 260 261
305 273 258 239 238 238 242 235 233 233 236 234 237 237 240 240 243 239 240 240 241 242 242 242 243 245 246 247 247 248 248 249 251 253 255 256 256 256 256 257 258 259 261 262
326 292 269 259 250 240 240 246 243 240 241 243 244 244 246 246 248 246 242 243 244 244 245 246 246 248 249 250 252 252 253 255 254 254 255 255 257 258 259 259 260 259 258 259
339 312 284 267 260 254 246 251 245 245 245 246 247 250 253 254 254 256 253 249 248 251 251 249 250 250 251 252 253 254 256 256 257 257 258 258 260 259 259 260 260 261 261 263
348 334 302 278 262 258 259 256 250 248 250 248 246 249 252 254 255 256 258 254 251 251 252 254 255 255 254 254 255 255 256 257 258 259 260 261 261 262 262 261 260 260 260 261
348 338 325 301 275 258 256 255 249 245 248 248 249 249 250 252 255 257 257 256 254 252 251 252 253 253 254 255 256 256 257 258 259 259 260 260 261 261 261 261 262 263 265 265
345 341 332 317 299 280 269 261 257 254 249 250 249 249 248 248 253 254 254 254 254 253 251 250 250 250 252 252 253 254 256 257 258 260 261 263 263 263 264 264 264 263 262 263
352 348 340 326 306 292 283 268 259 255 255 255 253 253 252 249 250 253 254 252 251 251 250 249 249 249 251 253 253 254 255 255 257 259 261 262 263 263 264 264 264 263 263 263
357 344 338 332 316 295 286 280 272 264 257 256 256 254 253 252 251 250 251 250 249 247 246 245 246 246 247 248 249 249 251 253 255 257 258 259 261 262 264 265 265 264 264 263
357 352 340 334 329 309 285 275 271 265 261 257 255 254 254 254 252 252 252 252 253 251 249 248 247 245 245 246 247 248 248 251 252 253 255 254 255 258 259 259 260 261 262 263
357 352 349 340 329 317 295 278 271 269 264 257 256 256 253 252 252 252 253 254 253 254 256 254 252 252 251 251 251 251 252 251 251 252 254 255 253 251 254 256 259 261 262 262
355 351 349 345 335 319 306 288 273 265 264 263 261 256 254 253 252 252 252 252 254 254 254 255 256 255 255 254 253 253 253 255 255 254 255 256 257 256 256 255 256 258 261 262
Height
10412 10425 10445 10462 10479 10489 10500 10510 10527 10540 10559 10574 10585 10593 10608 10619 10637 10647 10660 10673 10687 10701 10710 10721 10730 10738 10745 10752 10760 10765 10771 10776 10783 10787 10791 10794 10797 10800 10803 10806 10808 10809 10810 10811
10405 10418 10436 10449 10461 10481 10497 10510 10523 10536 10546 10559 10570 10585 10597 10610 10627 10634 10648 10662 10675 10687 10699 10710 10717 10726 10732 10741 10747 10755 10760 10766 10772 10777 10780 10782 10785 10788 10790 10793 10796 10797 10798 10799
10401 10413 10436 10453 10467 10480 10491 10502 10515 10528 10533 10549 10564 10577 10590 10600 10611 10625 10639 10653 10662 10676 10684 10694 10702 10710 10718 10727 10734 10742 10748 10755 10760 10765 10768 10770 10773 10775 10779 10782 10784 10785 10788 10788
10401 10418 10433 10444 10458 10472 10483 10494 10505 10516 10528 10540 10552 10566 10579 10587 10602 10615 10625 10639 10649 10659 10670 10682 10689 10694 10703 10714 10722 10728 10735 10742 10747 10751 10754 10757 10760 10765 10768 10771 10773 10774 10776 10777
10403 10416 10430 10442 10454 10465 10476 10488 10493 10505 10517 10535 10547 10558 10571 10579 10588 10601 10612 10625 10635 10644 10655 10668 10674 10682 10688 10700 10707 10715 10722 10728 10732 10737 10741 10746 10750 10753 10756 10758 10760 10762 10762 10763
10406 10418 10428 10436 10449 10462 10469 10481 10491 10501 10514 10530 10538 10547 10556 10564 10577 10588 10599 10611 10622 10631 10641 10652 10661 10669 10676 10683 10691 10699 10704 10709 10715 10721 10727 10732 10737 10741 10743 10745 10747 10747 10749 10749
10405 10413 10424 10435 10447 10456 10466 10474 10484 10495 10508 10517 10529 10537 10543 10553 10565 10578 10590 10601 10610 10618 10628 10638 10649 10654 10660 10665 10672 10679 10686 10694 10699 10704 10711 10716 10721 10723 10726 10727 10729 10731 10733 10734
10412 10420 10427 10435 10444 10453 10461 10468 10481 10490 10500 10508 10515 10526 10528 10544 10555 10566 10578 10588 10598 10605 10614 10621 10628 10636 10643 10651 10656 10662 10669 10675 10681 10687 10692 10698 10703 10706 10710 10712 10714 10715 10717 10717
10421 10425 10430 10437 10445 10452 10459 10469 10478 10483 10490 10498 10504 10511 10516 10534 10544 10552 10562 10572 10581 10588 10598 10605 10615 10622 10629 10633 10638 10645 10651 10656 10662 10668 10673 10678 10683 10687 10691 10693 10697 10700 10702 10704
10418 10422 10429 10435 10442 10450 10455 10462 10466 10473 10480 10485 10494 10499 10510 10521 10528 10538 10547 10555 10562 10571 10580 10587 10598 10604 10610 10615 10621 10626 10631 10636 10642 10647 10654 10660 10665 10668 10671 10675 10678 10682 10683 10685
10421 10423 10427 10434 10439 10443 10449 10455 10461 10466 10472 10477 10484 10487 10500 10508 10515 10522 10530 10537 10545 10554 10564 10570 10578 10587 10592 10596 10603 10606 10612 10618 10625 10630 10634 10639 10643 10649 10653 10657 10659 10661 10663 10664
10424 10426 10428 10430 10433 10436 10441 10446 10452 10457 10461 10466 10474 10481 10488 10496 10501 10506 10514 10523 10531 10537 10545 10553 10560 10566 10572 10578 10583 10589 10594 10600 10605 10610 10614 10619 10623 10627 10631 10636 10639 10642 10644 10645
10425 10424 10424 10427 10431 10435 10437 10440 10444 10449 10455 10460 10463 10468 10475 10480 10485 10492 10500 10508 10515 10522 10528 10534 10540 10546 10553 10558 10564 10568 10574 10579 10584 10589 10594 10599 10603 10607 10611 10614 10617 10621 10624 10626
10424 10423 10423 10426 10426 10427 10430 10434 10438 10443 10447 10447 10453 10455 10461 10463 10472 10479 10486 10492 10499 10505 10510 10515 10520 10525 10530 10536 10542 10548 10552 10558 10563 10568 10573 10579 10583 10587 10589 10592 10595 10599 10603 10604
10418 10420 10419 10419 10421 10423 10424 10426 10429 10432 10430 10437 10434 10441 10443 10445 10457 10466 10474 10475 10481 10486 10491 10495 10500 10503 10508 10514 10521 10528 10535 10539 10544 10549 10553 10558 10562 10566 10570 10572 10575 10578 10580 10582
10416 10415 10415 10416 10415 10416 10417 10419 10420 10422 10423 10427 10426 10430 10428 10436 10445 10455 10458 10463 10466 10468 10473 10478 10483 10488 10493 10498 10503 10509 10515 10520 10524 10528 10533 10536 10541 10545 10548 10551 10553 10555 10557 10558
10412 10410 10409 10409 10409 10409 10410 10409 10412 10414 10414 10418 10420 10415 10420 10426 10431 10440 10446 10450 10451 10454 10458 10463 10468 10472 10476 10481 10485 10490 10495 10499 10505 10509 10512 10515 10517 10519 10523 10526 10529 10531 10532 10534
10410 10406 10403 10402 10401 10401 10399 10401 10404 10405 10405 10407 10408 10406 10410 10414 10418 10422 10430 10438 10439 10439 10444 10448 10452 10455 10459 10463 10466 10471 10474 10477 10481 10484 10487 10491 10494 10497 10499 10501 10503 10506 10508 10510
10404 10401 10398 10394 10394 10393 10392 10392 10393 10393 10394 10395 10394 10396 10399 10403 10404 10407 10413 10419 10422 10425 10427 10429 10433 10437 10441 10445 10448 10452 10456 10459 10461 10464 10467 10470 10473 10475 10477 10478 10481 10483 10483 10483
10401 10395 10391 10388 10387 10385 10383 10386 10386 10385 10386 10383 10384 10385 10388 10390 10390 10395 10397 10400 10403 10408 10411 10413 10418 10421 10424 10428 10430 10434 10436 10439 10442 10444 10447 10449 10451 10453 10456 10457 10459 10460 10462 10462
10401 10392 10385 10380 10378 10375 10375 10375 10376 10377 10375 10374 10375 10376 10378 10378 10379 10382 10384 10386 10389 10392 10394 10397 10401 10403 10406 10409 10414 10417 10419 10421 10422 10425 10426 10429 10431 10431 10433 10435 10438 10440 10441 10442
10394 10385 10378 10374 10370 10365 10364 10364 10365 10365 10365 10365 10366 10366 10366 10368 10369 10371 10373 10374 10375 10378 10380 10382 10385 10388 10390 10393 10396 10399 10402 10403 10405 10407 10410 10411 10411 10412 10414 10417 10418 10419 10421 10424
10389 10381 10371 10364 10361 10356 10352 10351 10351 10352 10352 10353 10354 10355 10356 10357 10358 10360 10362 10363 10364 10365 10367 10370 10372 10374 10376 10378 10381 10384 10385 10387 10389 10392 10394 10395 10395 10396 10397 10398 10400 10402 10404 10407
10384 10375 10366 10357 10351 10346 10341 10337 10337 10337 10338 10339 10340 10342 10344 10345 10347 10348 10350 10352 10353 10355 10356 10358 10360 10362 10364 10366 10368 10370 10372 10374 10375 10377 10378 10380 10381 10381 10382 10384 10385 10386 10388 10389
10376 10369 10361 10349 10342 10335 10329 10326 10323 10322 10324 10325 10326 10328 10331 10332 10334 10336 10338 10341 10342 10344 10345 10347 10348 10350 10352 10353 10356 10357 10359 10360 10362 10363 10364 10365 10367 10368 10368 10370 10370 10372 10373 10374
10367 10356 10349 10339 10330 10323 10318 10314 10310 10308 10308 10309 10312 10314 10316 10318 10321 10323 10325 10327 10329 10331 10333 10336 10337 10339 10339 10341 10343 10344 10346 10348 10349 10349 10350 10351 10353 10355 10355 10356 10357 10358 10358 10360